Location: Monteux
(44.0348°N, 4.9972°E)
Time: 17:04:39
(UTC+00:00)

YAOGAN 1 - Pass Details

Date: 30 November 2020
Orbit: 618 x 620 km, 97.9° (Epoch: 17 January)

Event Time Altitude Azimuth Distance (km) Brightness Sun altitude
Rises 18:20:58 0° 167° (SSE) 2,882 5.9 -24.1°
Enters shadow 18:21:36 - 167° (SSE) 2,617 5.7 -24.2°
Exits shadow 18:29:02 39° 342° (NNW) 936 3.5 -25.5°
Drops below altitude 10° 18:31:49 10° 346° (NNW) 1,998 5.2 -26.0°
Sets 18:34:01 0° 347° (NNW) 2,909 6.1 -26.4°
